Weather Roundup
Issued by NWS Chicago, IL

Home | Current Version | Previous Version | Graphics & Text | Print | Product List | Glossary On
Versions: 1 2 3 4 5 6 7 8 9 10 11 12 13 14 15 16 17 18 19 20 21 22 23 24 25 26 27 28 29 30 31 32 33 34 35 36 37 38 39 40 41 42 43 44 45 46 47 48 49 50
000
NZUS59 KLOT 282106
HRRLOT

CHICAGO AREA WEATHER ROUNDUP
NATIONAL WEATHER SERVICE CHICAGO/ROMEOVILLE IL
300 PM CST SAT FEB 28 2015

NOTE: "FAIR" INDICATES FEW OR NO CLOUDS BELOW 12,000 FEET WITH NO
SIGNIFICANT WEATHER AND/OR OBSTRUCTIONS TO VISIBILITY.

* THESE STATIONS ARE NOT UNDER NWS QUALITY CONTROL. THEY ALSO MAY NOT
  REPORT WEATHER SUCH AS PRECIPITATION OR FOG.

ILZ005-006-012>014-019>023-282200-
NORTHEAST ILLINOIS

CITY           SKY/WX    TMP DP  RH WIND       PRES   REMARKS
OHARE          MOSUNNY   20   0  41 SE8       30.57F WCI  10
MIDWAY         MOSUNNY   23   2  40 S7        30.59F WCI  15
AURORA         SUNNY     20   3  48 SE9       30.58F WCI   9
LANSING*       SUNNY     21   4  48 SE6       30.59F WCI  14
JOLIET*        SUNNY     19   5  56 SE7       30.59F WCI   9
WAUKEGAN       SUNNY     18   6  59 SE6       30.57F WCI  10
DUPAGE AIRPORT SUNNY     19   2  47 S8        30.57F WCI   9
WHEELING       SUNNY     20  -2  38 S5        30.60F WCI  13
KANKAKEE*      SUNNY     21  10  62 SE7       30.59F WCI  13
MORRIS*        SUNNY     21   9  58 SE7       30.58S WCI  12
LEWIS AIRPORT* SUNNY     19   5  53 S9        30.58F WCI   9
NORTHERLY IS     N/A     21   4  47 SE9         N/A  WCI  11
$$

WIZ051-052-058>065-066-070>072-282200-
SOUTHEAST WISCONSIN

CITY           SKY/WX    TMP DP  RH WIND       PRES   REMARKS
MILWAUKEE      MOSUNNY   17  -1  45 S9        30.58F WCI   6
KENOSHA*       SUNNY     19   0  43 S3        30.57F
RACINE*        SUNNY     18   4  54 SE6       30.60F WCI  10
BURLINGTON     SUNNY     18   0  45 SW7       30.57F WCI   9
WEST BEND      SUNNY     21  -4  33 SW6       30.55S WCI  14
$$

INZ001>003-010>013-019-020-282200-
NORTHWEST INDIANA

CITY           SKY/WX    TMP DP  RH WIND       PRES   REMARKS
GARY*          MOSUNNY   23  -4  30 SE5       30.61F WCI  17
MICHIGAN CITY* NOT AVBL
RENSSELAER*    NOT AVBL
VALPARAISO     SUNNY     19   5  54 E7        30.59F WCI  10
$$

LMZ740>746-282200-
SOUTHERN LAKE MICHIGAN

STATION/POSITION TIME  SKY/WX   TEMP WIND        PRES    VSBY
                                AIR  DIR/SP/G
                 (UTC)          (F)  (DEG/KT/KT) (MB)    (MI)
HARRISON CRIB    2100            18  120/ 11/ 14   N/A
BURNHAM HARBOR   2100            21  110/  9/  9   N/A
CALUMET HARBOR   2100            21  130/  6/  8 1034.6S
BURNS HARBOR     NOT AVBL
MICHIGAN CITY    2100            20  120/  7/  9   N/A
$$

ABBREVIATIONS USED IN REMARKS
   TC - TEMPERATURE IN CELSIUS
  WCI - WIND CHILL INDEX
   HX - HEAT INDEX
  VSB - VISIBILITY
$$



USA.gov is the U.S. government's official web portal to all federal, state and local government web resources and services.